Location: Newark
(45.5000°N, 11.4167°E)
Time: 22:08:19
(UTC+00:00)

A-11 Canister half - Visible Passes

Search period start: 24 August 2019 00:00
Search period end: 03 September 2019 00:00
Orbit: 1514 x 1686 km, 47.2° (Epoch: 23 August)

Date Brightness Start Highest point End Pass type
(mag) Time Alt. Az. Time Alt. Az. Time Alt. Az.
24 Aug 9.1 19:23:50 10° W 19:33:27 81° N 19:43:19 10° E visible
24 Aug 8.9 21:28:58 10° WNW 21:38:41 79° SSW 21:41:27 54° SE visible
24 Aug 10.0 23:34:15 10° WNW 23:39:35 29° WSW 23:39:35 29° WSW visible
25 Aug 9.2 19:00:55 10° W 19:10:29 81° N 19:20:26 10° E visible
25 Aug 9.0 21:06:03 10° WNW 21:15:45 81° SSW 21:19:12 47° SE visible
25 Aug 9.9 23:11:16 10° WNW 23:17:21 33° WSW 23:17:21 33° WSW visible
26 Aug 9.2 18:37:59 10° W 18:47:31 81° N 18:57:26 10° E visible
26 Aug 9.0 20:43:08 10° WNW 20:52:49 83° SSW 20:57:01 41° ESE visible
26 Aug 9.7 22:48:17 10° WNW 22:55:10 37° WSW 22:55:10 37° WSW visible
27 Aug 9.2 18:15:04 10° W 18:24:34 82° N 18:34:27 10° E visible
27 Aug 9.0 20:20:13 10° WNW 20:29:52 85° SSW 20:34:53 35° ESE visible
27 Aug 9.6 22:25:19 10° WNW 22:33:02 40° WSW 22:33:02 40° WSW visible
28 Aug 9.0 19:57:18 10° WNW 20:06:56 86° SSW 20:12:47 29° ESE visible
28 Aug 9.5 22:02:22 10° WNW 22:10:57 44° SW 22:10:57 44° SW visible
29 Aug 9.0 19:34:23 10° WNW 19:43:59 88° SSW 19:50:44 24° ESE visible
29 Aug 9.4 21:39:25 10° WNW 21:48:29 46° SW 21:48:55 46° SSW visible
30 Aug 9.1 19:11:27 10° WNW 19:21:03 90° S 19:28:44 19° ESE visible
30 Aug 9.3 21:16:29 10° WNW 21:25:36 49° SW 21:26:54 46° SSW visible
30 Aug 10.9 23:24:00 10° W 23:25:05 12° W 23:25:05 12° W visible
31 Aug 9.1 18:48:33 10° WNW 18:58:06 89° NNE 19:06:46 15° ESE visible
31 Aug 9.3 20:53:33 10° WNW 21:02:43 51° SW 21:04:57 44° S visible
31 Aug 10.7 23:00:40 10° W 23:03:08 14° WSW 23:03:08 14° WSW visible
01 Sep 9.1 18:25:38 10° WNW 18:35:09 87° NNE 18:44:52 11° ESE visible
01 Sep 9.3 20:30:37 10° WNW 20:39:50 53° SW 20:43:02 40° SSE visible
01 Sep 10.6 22:37:24 10° W 22:41:13 16° WSW 22:41:13 16° WSW visible
02 Sep 9.2 18:02:43 10° WNW 18:12:12 86° NNE 18:22:04 10° ESE visible
02 Sep 9.3 20:07:41 10° WNW 20:16:56 56° SW 20:21:10 35° SSE visible
02 Sep 10.5 22:14:12 10° W 22:19:21 19° WSW 22:19:21 19° WSW visible
